Location: Pal�
(45.3167°N, 11.1500°E)
Time: 06:00:47
(UTC+00:00)

Daily predictions for brighter satellites

Satellite Brightness Start Highest point End
(mag) Time Altitude Azimuth Time Altitude Azimuth Time Altitude Azimuth
DMSP B5D2-2 4.1 19:00:53 10° NNE 19:06:04 62° E 19:11:15 10° S
OE (NEXTSAT) 4.3 19:04:56 10° W 19:08:27 87° SSW 19:11:57 10° ESE
ATLAS 5 CENTAUR R/B 2.5 19:03:02 10° NW 19:08:40 69° NE 19:15:16 10° SE
SL-4 R/B 3.0 19:05:49 10° S 19:09:03 23° SE 19:12:06 10° E
SL-08 RB Rocket 4.3 19:08:30 10° S 19:13:04 62° W 19:17:42 10° NNW
MetOp-A 4.2 19:09:27 10° SSE 19:14:49 87° ENE 19:20:13 10° NNW
Cosmos 1833 Rocket 3.3 19:11:05 10° SSE 19:16:05 35° ESE 19:21:07 10° NE
Cosmos 1697 Rocket 3.4 19:10:56 10° NNW 19:16:10 38° NE 19:21:19 10° ESE
Cosmos 2228 Rocket 3.0 19:13:30 10° N 19:17:58 76° E 19:22:21 10° SSE
Cosmos 1515 Rocket 4.4 19:16:13 10° NNW 19:20:34 53° W 19:24:55 10° S
Cosmos 389 Rocket 2.8 19:17:37 10° N 19:20:56 44° ENE 19:24:15 10° SSE
SPOT 3 Rocket 3.6 19:15:51 10° SSE 19:21:02 70° ENE 19:26:13 10° N
Cosmos 1812 3.2 19:19:10 10° N 19:22:51 42° ENE 19:26:30 10° SSE
Cosmos 2251 Rocket 3.7 19:17:45 10° SSW 19:23:00 79° WNW 19:28:20 10° NNE
Cosmos 1727 Rocket 4.1 19:16:40 10° N 19:23:04 84° E 19:29:26 10° S
Cosmos 1656 3.6 19:22:24 10° NNW 19:27:55 78° ENE 19:33:27 10° SSE
Cosmos 1633 4.4 19:27:24 10° SW 19:30:39 33° WNW 19:33:55 10° N
IRIDIUM 104 4.3 19:26:02 10° S 19:31:11 66° E 19:36:22 10° N
Resurs 01 Rocket 1.7 19:27:49 10° SSE 19:32:09 61° ENE 19:36:32 10° N
Cosmos 1707 Rocket 4.2 19:28:14 10° N 19:32:18 38° ENE 19:35:44 13° SE
Cosmos 220 Rocket 4.1 19:28:17 10° NNW 19:32:28 57° ENE 19:36:05 13° SE
Cosmos 972 Rocket 4.1 19:29:20 10° NNW 19:34:20 74° WSW 19:39:12 10° S
FALCON 9 DEB 4.2 19:34:21 10° SSW 19:37:14 25° SE 19:40:09 10° E
Cosmos 1441 Rocket 3.2 19:34:03 10° S 19:37:47 60° E 19:41:31 10° NNE
IRIDIUM 114 4.3 19:35:07 10° S 19:40:19 80° E 19:45:33 10° N
Cosmos 614 Rocket 3.9 19:36:23 10° S 19:41:28 67° ESE 19:46:39 10° NNE
NOSS 3-2 (A) 4.4 19:38:14 10° SSE 19:42:26 22° ESE 19:46:58 10° ENE
IGS 5A 4.3 19:41:07 16° SE 19:43:52 35° ENE 19:47:39 10° N
USA 267 3.2 19:41:38 10° NE 19:48:12 75° SE 19:54:45 10° SW
IRIDIUM 103 4.4 19:44:13 10° S 19:49:26 86° W 19:54:42 10° N
GP-B 3.9 19:46:49 10° NNE 19:50:50 32° E 19:53:14 19° SE
Cosmos 1821 Rocket 3.9 19:45:33 10° S 19:51:38 79° E 19:57:52 10° N
COSMOS 2406 3.3 19:48:08 10° SSW 19:53:54 85° WNW 19:59:42 10° NNE
Shenzhou-11 Module 1.9 19:52:54 10° W 19:55:09 38° S 19:55:30 35° SSE
CZ-2C R/B 4.1 19:52:05 10° N 19:56:42 66° WNW 20:01:12 10° SSW
SL-16 R/B 4.1 19:54:45 10° N 19:58:30 18° NE 20:02:14 10° E
Intercosmos 25 3.3 19:54:17 10° N 19:58:46 80° W 20:01:25 16° S
Cosmos 1862 Rocket 4.3 19:54:42 10° N 19:58:51 36° ENE 20:01:01 22° SE
ERS-1 Rocket 4.0 19:56:09 18° ESE 19:58:57 31° ENE 20:03:21 10° N
Lacrosse 5 3.6 19:57:06 10° NW 20:01:23 27° NNE 20:05:41 10° ENE
Cosmos 1862 4.2 19:59:10 10° SSW 20:03:06 50° WNW 20:07:05 10° N
Sich 1 3.1 19:59:31 10° S 20:03:57 83° W 20:08:25 10° N
Cosmos 2369 3.7 19:58:22 10° NNW 20:04:09 77° ENE 20:08:05 21° SSE
BREEZE-M DEB (TANK) 3.3 20:06:00 10° WNW 20:08:40 32° N 20:09:54 16° NE
Cosmos 1818 3.6 20:03:21 10° NW 20:08:49 78° WSW 20:12:24 22° SSE
Cosmos 2082 Rocket 2.3 20:03:30 10° S 20:09:01 55° ESE 20:14:34 10° NE
Cosmos 1954 Rocket 4.4 20:06:50 15° SSE 20:10:50 43° ESE 20:15:52 10° NNE
Cosmos 2278 3.9 20:07:44 10° NNW 20:13:26 63° ENE 20:16:44 25° SE
Cosmos 2123 Rocket 4.0 20:07:24 10° N 20:13:38 71° E 20:18:06 20° SSE
Cosmos 1535 Rocket 4.4 20:08:44 10° S 20:14:46 68° E 20:20:51 10° NNE
Spot 2 Rocket 3.5 20:11:25 21° SSE 20:14:49 76° ENE 20:19:56 10° N
Meteor 2-20 4.4 20:09:13 10° N 20:15:25 84° E 20:20:07 18° S
Cosmos 2322 Rocket 4.0 20:16:55 10° N 20:21:07 21° NE 20:24:25 13° E
Meteor 1-4 Rocket 2.3 20:17:46 10° N 20:21:15 82° ENE 20:22:26 39° SSE
Cosmos 1184 Rocket 2.9 20:21:02 45° SE 20:21:33 51° E 20:24:46 10° NNE
CARTOSAT-1 4.0 20:20:05 30° ESE 20:21:41 44° ENE 20:25:49 10° N
Cosmos 1190 Rocket 4.0 20:16:32 10° SSW 20:21:48 88° ESE 20:27:09 10° NNE
Terra 2.8 20:21:08 24° ESE 20:22:53 32° ENE 20:27:05 10° N
USA 234 3.3 20:18:46 22° ESE 20:23:15 78° NE 20:29:48 10° NW
Cosmos 407 Rocket 3.8 20:19:27 10° SSW 20:24:47 73° WNW 20:30:05 10° NNE
Cosmos 1605 Rocket 4.1 20:21:08 21° SSE 20:25:06 55° E 20:31:03 10° NNE
Cosmos 1933 Rocket 4.3 20:24:16 31° ESE 20:25:10 35° E 20:29:12 10° NNE
Cosmos 1666 Rocket 3.7 20:21:27 11° SSW 20:25:34 74° W 20:29:54 10° N
Meteor 1-20 Rocket 4.4 20:23:25 23° SSE 20:26:56 55° E 20:32:38 10° NNE
Cosmos 1238 Rocket 3.1 20:28:02 32° ENE 20:28:02 32° ENE 20:30:16 10° NNE
MetOp-B 4.5 20:25:45 17° S 20:29:50 62° WSW 20:35:11 10° NNW
Okean 1 4.1 20:27:07 10° N 20:30:49 34° ENE 20:31:27 32° E
Cosmos 1602 4.5 20:31:37 34° E 20:31:45 34° E 20:35:20 10° NNE
Meteor 1-27 Rocket 4.3 20:26:12 10° NNW 20:32:01 60° W 20:36:53 15° S
Cosmos 2360 Rocket 4.3 20:31:41 10° N 20:35:04 16° NE 20:38:26 10° ENE
Cosmos 1437 Rocket 4.0 20:32:06 10° NNE 20:35:16 24° ENE 20:35:27 24° ENE
CZ-4B DEB 4.3 20:35:36 58° ESE 20:36:00 66° ENE 20:39:20 10° N
SPOT 5 2.8 20:35:54 39° SE 20:37:10 55° ENE 20:41:25 10° N
USA 238 DEB 3.7 20:31:22 10° SSW 20:37:46 55° ESE 20:44:26 10° NE
USA 238 3.7 20:31:30 10° SSW 20:37:53 55° ESE 20:44:32 10° NE
BREEZE-M DEB (TANK) 4.2 20:36:38 10° W 20:38:04 12° WSW 20:39:00 11° SW
SPOT 1/Viking Rocket 3.6 20:39:53 28° S 20:42:43 76° WSW 20:47:58 10° NNW
Cosmos 1980 Rocket 2.1 20:38:53 10° NNW 20:44:36 86° WSW 20:47:05 35° SSE
Cosmos 1703 Rocket 4.1 20:42:26 10° N 20:46:33 39° ENE 20:47:05 38° E
Cosmos 2242 Rocket 3.8 20:42:14 10° N 20:46:37 55° ENE 20:47:29 46° ESE
SL-4 R/B 1.9 20:44:30 10° WSW 20:48:24 72° NNW 20:51:35 13° ENE
Cosmos 405 Rocket 2.6 20:49:22 58° E 20:49:22 58° E 20:52:58 10° NNE
Cosmos 1763 Rocket 4.2 20:44:26 10° N 20:49:30 42° ENE 20:51:08 33° ESE
BREEZE-M DEB (TANK) 3.5 20:46:43 10° WNW 20:49:43 54° N 20:58:12 10° E
Genesis I 3.0 20:46:19 10° NW 20:50:12 90° WNW 20:50:44 66° SE
Cosmos 1140 Rocket 4.1 20:45:20 10° SW 20:50:29 56° WNW 20:55:41 10° NNE
ATLAS 5 CENTAUR R/B 4.0 20:48:15 10° WNW 20:53:09 27° WSW 20:57:17 15° SSW
USA 32 4.2 20:53:02 24° SSW 20:56:13 73° W 21:01:28 10° N
Cosmos 1633 Rocket 4.3 20:55:05 12° SW 20:58:56 40° WNW 21:03:08 10° N
Cosmos 1833 Rocket 4.0 20:54:41 10° SW 20:59:56 39° NW 21:05:13 10° NNE
Cosmos 1697 Rocket 3.8 20:55:01 10° NW 21:00:05 36° WSW 21:03:04 21° SSW
Cosmos 1153 Rocket 4.4 21:03:26 37° S 21:05:57 74° E 21:12:07 10° NNE
CENTAUR R/B 2.6 21:04:46 41° SSE 21:06:17 50° ESE 21:12:52 10° NE
Cosmos 1867 3.8 21:00:55 10° SW 21:06:21 73° NW 21:11:49 10° NNE
Meteor 1-18 Rocket 4.1 21:02:29 10° N 21:08:07 86° E 21:09:49 47° SSE
Okean 1-7 3.0 21:03:59 10° N 21:08:17 60° ENE 21:08:30 59° E
Resurs 01 Rocket 4.2 21:06:38 10° WSW 21:09:02 14° W 21:11:29 10° WNW
FALCON 9 DEB 3.8 21:10:38 10° WSW 21:14:05 55° NNW 21:15:22 33° NE
Cosmos 1850 Rocket 4.0 21:14:19 55° SE 21:15:05 62° ESE 21:20:18 10° NNE
Meteor 2-4 Rocket 3.8 21:12:12 10° N 21:17:49 58° ENE 21:18:54 49° ESE
Cosmos 1515 3.7 21:14:49 10° N 21:18:22 74° NNE 21:18:22 74° NNE
Cosmos 44 4.4 21:17:21 10° NNW 21:21:51 36° NE 21:23:09 31° ENE
ATLAS 5 CENTAUR R/B 3.3 21:19:28 10° NNW 21:22:08 33° NE 21:23:25 28° E
USA 267 4.3 21:24:49 10° NE 21:31:00 46° NNW 21:37:10 10° W
NOSS 3-2 (A) 3.6 21:26:46 10° SW 21:32:27 70° NW 21:39:01 10° NE
Cosmos 921 Rocket 3.8 21:30:43 10° NNW 21:34:39 39° WSW 21:34:50 39° WSW
ERS-1 Rocket 4.1 21:36:08 29° SW 21:37:39 35° W 21:42:16 10° NNW
NOSS 3-2 (C) 3.2 21:35:51 38° SSW 21:38:16 86° SE 21:44:48 10° NE
Cosmos 841 Rocket 3.6 21:36:23 10° NNW 21:41:34 60° ENE 21:42:00 58° E
Cosmos 540 Rocket 3.6 21:37:52 10° NNW 21:43:00 60° ENE 21:43:22 58° E
SL-16 R/B 2.0 21:37:47 10° NNW 21:43:30 85° ENE 21:44:17 67° SE
Lacrosse 5 1.8 21:39:59 10° NW 21:45:04 73° NE 21:45:31 68° E
Cosmos 468 Rocket 4.2 21:39:54 10° NNW 21:45:08 61° WSW 21:45:45 56° SW
Cosmos 1741 Rocket 4.1 21:48:23 53° SW 21:49:31 72° WNW 21:54:49 10° NNE
Cosmos 1570 Rocket 3.9 21:47:31 10° NNW 21:52:52 77° ENE 21:53:10 74° ESE
Cosmos 2082 Rocket 4.1 21:48:37 10° WSW 21:53:27 28° NW 21:58:17 10° N
Tsikada Rocket 4.3 21:47:47 10° N 21:53:59 51° ENE 21:54:55 47° ESE
Cosmos 2219 Rocket 4.0 21:49:59 10° N 21:54:22 22° NE 21:56:38 17° ENE
Cosmos 2208 Rocket 4.0 21:49:42 10° NNW 21:54:58 67° ENE 21:55:10 67° E
Cosmos 1814 Rocket 4.0 21:50:09 10° NNW 21:55:21 64° ENE 21:55:32 64° E
Cosmos 2237 4.4 21:54:15 10° NNW 21:59:54 58° ENE 22:00:34 54° E
Terra 3.0 22:00:02 31° WSW 22:00:35 31° W 22:04:50 10° NNW
Cosmos 2322 Rocket 2.0 22:00:08 10° NNW 22:05:51 80° WSW 22:06:13 76° SSW
USA 234 4.0 22:06:06 34° SW 22:06:37 34° SW 22:12:30 10° WNW
Cosmos 2100 Rocket 4.2 22:05:35 45° SW 22:07:19 62° W 22:13:25 10° N
Meteor 1-11 Rocket 3.6 22:09:09 77° ESE 22:09:19 78° E 22:15:03 10° NNE
Cosmos 1869 Rocket 4.5 22:13:01 42° WNW 22:13:03 42° WNW 22:17:18 10° N
Cosmos 1242 Rocket 4.5 22:10:12 10° N 22:12:07 27° NNE 22:12:07 27° NNE
Cosmos 2360 Rocket 2.1 22:14:24 10° NNW 22:20:06 74° ENE 22:20:19 73° E
Geosat 4.2 22:20:48 60° W 22:20:48 60° W 22:25:28 10° NW
COSMOS 2428 4.1 22:15:59 10° N 22:20:58 29° NE 22:22:37 25° E
ATLAS 3B R/B 2.5 22:21:12 65° SE 22:21:16 65° ESE 22:27:50 10° NE
Iridium 4 Rocket 4.1 22:21:45 38° WNW 22:21:45 38° WNW 22:25:30 10° NNW
ALOS 2 3.3 22:27:44 49° NNE 22:27:44 49° NNE 22:31:11 10° N
Cosmos 1980 Rocket 4.4 22:25:17 10° WNW 22:27:41 13° W 22:28:51 12° WSW
Cosmos 1725 Rocket 3.9 22:27:19 69° SSW 22:28:07 82° W 22:34:30 10° N
SL-4 R/B 3.8 22:25:02 10° WNW 22:27:13 25° NW 22:27:13 25° NW
Nimbus 7 Rocket 4.3 22:26:26 10° NNE 22:32:15 69° E 22:32:15 69° E
SL-08 R/B 4.4 22:32:18 66° SW 22:33:00 73° W 22:39:07 10° N
Cosmos 1536 4.1 22:34:39 39° NNW 22:34:39 39° NNW 22:37:18 10° N
Cosmos 1674 Rocket 4.4 22:30:02 10° N 22:33:13 48° N 22:33:13 48° N
Cosmos 1666 4.4 22:37:32 30° NNW 22:37:32 30° NNW 22:39:46 10° N
Cosmos 2333 Rocket 2.8 22:35:01 10° NNW 22:40:36 47° ENE 22:41:19 45° E
Cosmos 2016 Rocket 4.4 22:39:51 47° WSW 22:41:08 55° WNW 22:47:24 10° N
Cosmos 2061 Rocket 4.4 22:41:22 47° WSW 22:42:32 54° WNW 22:48:37 10° N
Lacrosse 4 Rocket 3.3 22:45:23 25° NE 22:45:23 25° NE 22:47:15 10° NE
Cosmos 2237 Rocket 4.3 22:40:22 10° N 22:44:26 20° NE 22:47:32 13° E
Cosmos 1733 Rocket 4.0 22:50:59 44° NW 22:50:59 44° NW 22:54:23 10° N
Meteor 2-11 Rocket 4.4 22:51:23 70° E 22:51:24 70° E 22:57:28 10° NNE
Cosmos 1066 Rocket 4.3 22:48:16 10° NNW 22:53:46 64° W 22:53:46 64° W
Meteor 1-23 Rocket 4.4 22:49:58 10° NNW 22:55:42 66° W 22:55:42 66° W
Thor Agena Rocket 4.2 22:51:54 10° N 22:56:45 46° WNW 22:57:00 45° WNW
CENTAUR R/B 3.7 22:51:50 13° WSW 22:57:07 41° NW 23:03:58 10° NNE
Cosmos 968 Rocket 4.0 22:59:01 52° NE 22:59:01 52° NE 23:03:01 10° NNE
Cosmos 2233 Rocket 4.3 23:14:31 54° WSW 23:15:12 57° WNW 23:21:27 10° N
Cosmos 1464 Rocket 4.1 23:15:36 60° E 23:15:45 60° E 23:21:51 10° NNE
Cosmos 2227 Rocket 4.1 23:22:42 17° E 23:22:42 17° E 23:25:41 10° ENE
Helios 1B rocket 4.4 23:19:49 10° NNE 23:21:48 23° NE 23:21:48 23° NE
Meteor 1-21 4.3 23:19:32 10° N 23:25:21 70° ENE 23:25:21 70° ENE
SL-16 R/B 4.3 23:23:46 10° WNW 23:26:08 15° W 23:26:08 15° W
Lacrosse 5 4.1 23:23:39 10° WNW 23:24:41 14° W 23:24:41 14° W
Cosmos 2322 4.1 23:24:44 10° NNW 23:29:31 54° WNW 23:29:31 54° WNW
Nadezhda 4 Rocket 4.1 23:31:11 10° N 23:37:27 63° E 23:38:04 60° ESE
Cosmos 2219 Rocket 2.3 23:33:14 10° NNW 23:38:19 67° WNW 23:38:19 67° WNW
Cosmos 1513 Rocket 4.4 23:42:38 79° SW 23:43:01 85° W 23:49:30 10° N
Cosmos 1975 Rocket 4.0 23:39:13 10° NNW 23:42:25 46° NNW 23:42:25 46° NNW
Cosmos 2034 Rocket 3.9 23:43:53 69° ESE 23:44:13 71° E 23:50:30 10° NNE
Okean 2 Rocket 4.2 23:45:22 39° NE 23:45:22 39° NE 23:48:36 10° NNE
Cosmos 1503 Rocket 4.2 23:45:55 71° NNW 23:45:55 71° NNW 23:50:58 10° NNE
Cosmos 1072 Rocket 4.3 23:46:51 74° WSW 23:47:04 75° W 23:53:12 10° N
Cosmos 2322 Rocket 4.5 23:47:01 10° WNW 23:48:01 11° W 23:48:01 11° W
SL-16 R/B 3.9 23:46:15 21° ESE 23:49:23 32° ENE 23:54:49 10° N
Cosmos 1092 Rocket 4.5 23:45:33 10° N 23:51:38 51° ENE 23:52:45 45° ESE
Sich 1 Rocket 4.4 23:55:31 48° N 23:55:31 48° N 23:58:44 10° N
CZ-2D R/B 3.8 23:50:09 10° NE 23:54:25 23° E 23:54:54 22° E
SL-16 R/B 4.2 23:50:08 10° N 23:54:46 25° NE 23:59:22 10° ESE
